2023/09/26 00:00:00, 2.2,20.9
2023/09/26 00:10:00, 2.8,20.8
2023/09/26 00:20:00, 3.0,20.9
2023/09/26 00:30:00, 2.9,20.7
2023/09/26 00:40:00, 2.3,20.7
2023/09/26 00:50:00, 1.4,20.4
2023/09/26 01:00:00, 0.6,20.2
2023/09/26 01:10:00, 0.2,20.4
2023/09/26 01:20:00, 0.4,20.8
2023/09/26 01:30:00, 4.5,20.3
2023/09/26 01:40:00,10.3,20.0
2023/09/26 01:50:00, 7.0,19.9
2023/09/26 02:00:00,11.9,19.8
2023/09/26 02:10:00,13.9,19.7
2023/09/26 02:20:00,14.0,19.6
2023/09/26 02:30:00,13.6,19.5
2023/09/26 02:40:00,13.4,19.4
2023/09/26 02:50:00,13.3,19.4
2023/09/26 03:00:00,13.3,19.6
2023/09/26 03:10:00,13.4,19.1
2023/09/26 03:20:00,13.0,19.2
2023/09/26 03:30:00, 3.7,19.3
2023/09/26 03:40:00, 7.2,19.5
2023/09/26 03:50:00,14.0,19.4
2023/09/26 04:00:00,14.0,19.9
2023/09/26 04:10:00,13.3,19.6
2023/09/26 04:20:00, 9.6,19.8
2023/09/26 04:30:00,11.6,19.4
2023/09/26 04:40:00,13.1,19.2
2023/09/26 04:50:00,13.1,19.2
2023/09/26 05:00:00,13.9,19.6
2023/09/26 05:10:00,14.0,19.6
2023/09/26 05:20:00,13.7,19.5
2023/09/26 05:30:00,12.7,19.3
2023/09/26 05:40:00,12.6,19.5
2023/09/26 05:50:00,12.5,19.4
2023/09/26 06:00:00,12.5,19.5
2023/09/26 06:10:00,12.4,19.5
2023/09/26 06:20:00,12.4,19.5
2023/09/26 06:30:00,12.5,19.5
2023/09/26 06:40:00,12.6,19.6
2023/09/26 06:50:00,12.8,19.7
2023/09/26 07:00:00,13.0,19.7
2023/09/26 07:10:00,13.1,20.1
2023/09/26 07:20:00,13.3,20.0
2023/09/26 07:30:00,13.7,20.2
2023/09/26 07:40:00,13.9,20.4
2023/09/26 07:50:00,14.2,20.3
2023/09/26 08:00:00,14.4,20.7
2023/09/26 08:10:00, 6.6,21.0
2023/09/26 08:20:00, 4.0,21.2
2023/09/26 08:30:00, 1.6,21.3
2023/09/26 08:40:00, 0.7,20.8
2023/09/26 08:50:00, 0.6,21.3
2023/09/26 09:00:00, 0.4,22.8
2023/09/26 09:10:00, 0.2,23.2
2023/09/26 09:20:00, 0.1,23.2
2023/09/26 09:30:00, 0.2,23.1
2023/09/26 09:40:00, 0.2,23.3
2023/09/26 09:50:00, 0.2,23.2
2023/09/26 10:00:00, 5.6,23.0
2023/09/26 10:10:00,13.1,22.8
2023/09/26 10:20:00,13.3,22.9
2023/09/26 10:30:00,13.4,22.7
2023/09/26 10:40:00,13.5,22.6
2023/09/26 10:50:00,13.3,22.6
2023/09/26 11:00:00,13.1,23.4
2023/09/26 11:10:00,13.1,23.5
2023/09/26 11:20:00,13.1,23.5
2023/09/26 11:30:00,12.9,23.5
2023/09/26 11:40:00,12.8,23.2
2023/09/26 11:50:00,12.8,23.2
2023/09/26 12:00:00,13.0,22.9
2023/09/26 12:10:00,13.0,23.9
2023/09/26 12:20:00,13.2,24.3
2023/09/26 12:30:00,13.3,23.8
2023/09/26 12:40:00,13.3,24.1
2023/09/26 12:50:00,13.4,24.2
2023/09/26 13:00:00,13.5,24.3
2023/09/26 13:10:00,13.5,24.0
2023/09/26 13:20:00,13.3,23.8
2023/09/26 13:30:00,13.5,23.0
2023/09/26 13:40:00,13.6,22.5
2023/09/26 13:50:00,13.4,22.2
2023/09/26 14:00:00,13.4,22.3
2023/09/26 14:10:00,13.4,22.1
2023/09/26 14:20:00,13.2,21.8
2023/09/26 14:30:00,13.0,21.5
2023/09/26 14:40:00,13.9,21.3
2023/09/26 14:50:00,14.1,21.1
2023/09/26 15:00:00,14.1,21.3
2023/09/26 15:10:00,14.7,21.0
2023/09/26 15:20:00,14.9,21.2
2023/09/26 15:30:00,15.0,21.3
2023/09/26 15:40:00,12.9,21.2
2023/09/26 15:50:00,13.5,21.5
2023/09/26 16:00:00,11.8,21.4
2023/09/26 16:10:00,11.6,21.2
2023/09/26 16:20:00, 6.6,21.2
2023/09/26 16:30:00, 6.7,21.3
2023/09/26 16:40:00,11.1,21.2
2023/09/26 16:50:00,12.9,21.1
2023/09/26 17:00:00,12.9,21.0
2023/09/26 17:10:00,10.8,20.9
2023/09/26 17:20:00, 1.3,21.1
2023/09/26 17:30:00, 0.9,20.7
2023/09/26 17:40:00, 1.6,20.8
2023/09/26 17:50:00, 2.1,20.5
2023/09/26 18:00:00, 4.5,20.7
2023/09/26 18:10:00,10.2,20.6
2023/09/26 18:20:00,13.6,20.4
2023/09/26 18:30:00,13.6,20.5
2023/09/26 18:40:00,13.5,20.3
2023/09/26 18:50:00,13.6,20.4
2023/09/26 19:00:00,13.6,20.5
2023/09/26 19:10:00,13.6,20.4
2023/09/26 19:20:00,13.6,20.5
2023/09/26 19:30:00,13.5,20.4
2023/09/26 19:40:00,13.5,20.4
2023/09/26 19:50:00,13.6,20.4
2023/09/26 20:00:00,13.6,20.4
2023/09/26 20:10:00,13.7,20.4
2023/09/26 20:20:00,13.9,20.2
2023/09/26 20:30:00,14.0,20.2
2023/09/26 20:40:00,14.2,20.2
2023/09/26 20:50:00,14.3,20.2
2023/09/26 21:00:00,14.3,20.2
2023/09/26 21:10:00,14.3,20.4
2023/09/26 21:20:00,13.8,20.1
2023/09/26 21:30:00, 7.8,20.2
2023/09/26 21:40:00, 1.1,20.2
2023/09/26 21:50:00, 0.4,19.8
2023/09/26 22:00:00, 0.3,20.1
2023/09/26 22:10:00, 0.4,19.9
2023/09/26 22:20:00, 0.4,19.8
2023/09/26 22:30:00, 0.3,19.9
2023/09/26 22:40:00, 0.3,19.9
2023/09/26 22:50:00, 0.4,19.8
2023/09/26 23:00:00, 0.6,20.0
2023/09/26 23:10:00, 0.9,19.8
2023/09/26 23:20:00, 1.1,19.8
2023/09/26 23:30:00, 1.5,19.7
2023/09/26 23:40:00, 1.5,19.8
2023/09/26 23:50:00, 1.9,19.9
